Starlink 30492

operational
NORAD ID: 57921 Int'l Des: 2023-147 Owner: SPXS Country: US Constellation: starlink
LEOCIRCULAR

Starlink 30492について

説明を読み込み中...

リアルタイム位置

3D地球を読み込み中...

次回通過

高度履歴

Altitude vs Time

uPlot chart will show altitude changes over time

軌道要素

1 57921U 23147J 26093.64928017 -.00003732 00000-0 -12630-3 0 9990
2 57921 43.0026 184.3830 0000703 250.8468 109.2307 15.27542711140418
Epoch: Apr 3, 2026 • Age: 17 hours

現在のステータス

高度 483.5 km
速度 7.63 km/s
衛星直下点 -4.40°S, 51.23°E
打ち上げ日 Sep 24, 2023
運用期間 2.5 years
タイプ internet

技術仕様

分類 Payload
質量 730.00 kg
乾燥質量 700.00 kg
総質量 730.00 kg
長さ 0.30 m
直径 4.10 m
スパン 29.00 m
形状 Box + pan
製造者 SPXS
バスタイプ Starlink V2M
フェーズステータス In Orbit
所有者/国 SPXS/US

大規模コンステレーション

Loading constellations...